Location: Unspecified
(33.3110°N, 0.0000°E)
Time: 00:50:19
(UTC+00:00)

Envisat - Visible Passes

Search period start: 16 October 2019 00:00
Search period end: 26 October 2019 00:00
Orbit: 764 x 766 km, 98.1° (Epoch: 15 October)

Date Brightness Start Highest point End Pass type
(mag) Time Alt. Az. Time Alt. Az. Time Alt. Az.
16 Oct 6.8 05:31:21 10° E 05:31:52 10° E 05:32:22 10° E visible
16 Oct 3.1 18:16:20 10° S 18:21:24 82° WSW 18:26:30 10° NNW visible
17 Oct 3.4 17:40:01 10° SE 17:44:45 41° ENE 17:49:30 10° N visible
17 Oct 5.8 19:20:30 10° SW 19:23:53 18° W 19:27:18 10° NW visible
18 Oct 4.2 18:42:08 10° S 18:46:56 43° W 18:51:46 10° NNW visible
19 Oct 2.9 18:05:06 10° SSE 18:10:10 78° ENE 18:15:15 10° N visible
20 Oct 5.4 19:08:33 10° SSW 19:12:33 23° W 19:16:34 10° NW visible
21 Oct 3.7 18:30:41 10° S 18:35:38 56° W 18:40:39 10° NNW visible
22 Oct 3.0 17:53:57 10° SSE 17:58:55 60° ENE 18:03:55 10° N visible
22 Oct 6.2 19:36:17 10° WSW 19:38:15 12° W 19:40:14 10° WNW visible
23 Oct 4.9 18:56:48 10° SSW 19:01:13 30° W 19:05:39 10° NW visible
24 Oct 6.6 05:33:12 10° ENE 05:34:53 11° E 05:36:33 10° ESE visible
24 Oct 3.2 18:19:20 10° S 18:24:23 74° WSW 18:29:28 10° NNW visible
25 Oct 3.3 17:42:53 10° SE 17:47:42 46° ENE 17:52:32 10° N visible
25 Oct 5.9 19:23:48 10° SW 19:26:54 16° W 19:30:00 10° NW visible
